This demonstration page uses our WeatherBlox Daily Observations layout. Learn more.

Hourly Observations for May 28, 2015

Temp ( °F °C ) Dew Point ( °F °C ) Humidity (%) Winds ( mph kmh ) Pressure ( in mb ) Visibility ( mi km ) Precip ( " mm )
12:15 am 00:15 Clear 64 18 59 15 83 83 SSE 8 13 29.97 1015 10 16.09344 0 0
12:35 am 00:35 Clear 63 17 59 15 88 88 SE 7 11 29.97 1015 10 16.09344 0 0
12:55 am 00:55 Clear 63 17 59 15 88 88 SE 7 11 29.97 1015 10 16.09344 0 0
1:15 am 01:15 Clear 63 17 59 15 88 88 SSE 8 13 29.97 1015 10 16.09344 0 0
1:35 am 01:35 Clear 63 17 59 15 88 88 SE 7 11 29.97 1015 10 16.09344 0 0
1:55 am 01:55 Clear 63 17 59 15 88 88 SE 7 11 29.94 1014 10 16.09344 0 0
2:15 am 02:15 Clear 61 16 59 15 94 94 SSE 6 9 29.94 1014 10 16.09344 0 0
2:35 am 02:35 Clear 61 16 57 14 88 88 SE 7 11 29.94 1014 10 16.09344 0 0
2:50 am 02:50 Clear 61 16 57 14 88 88 SE 7 11 29.94 1014 10 16.09344 0 0
3:15 am 03:15 Clear 59 15 57 14 94 94 SE 7 11 29.97 1015 10 16.09344 0 0
3:35 am 03:35 Clear 59 15 57 14 94 94 SSE 6 9 29.97 1015 10 16.09344 0 0
3:55 am 03:55 Clear 59 15 57 14 94 94 S 6 9 30 1016 10 16.09344 0 0
4:15 am 04:15 Clear 59 15 57 14 94 94 S 5 7 30 1016 10 16.09344 0 0
4:35 am 04:35 Clear 59 15 55 13 88 88 S 3 6 30 1016 10 16.09344 0 0
4:55 am 04:55 Clear 57 14 55 13 94 94 Calm 30 1016 10 16.09344 0 0
5:15 am 05:15 Clear 55 13 54 12 94 94 SE 6 9 30 1016 10 16.09344 0 0
5:35 am 05:35 Clear 55 13 54 12 94 94 SE 7 11 30 1016 10 16.09344 0 0
5:55 am 05:55 Clear 57 14 55 13 94 94 SSE 7 11 30 1016 10 16.09344 0 0
6:10 am 06:10 Clear 57 14 55 13 94 94 SSE 5 7 30 1016 10 16.09344 0 0
6:35 am 06:35 Sunny 55 13 54 12 94 94 Calm 30 1016 10 16.09344 0 0
6:55 am 06:55 Sunny 55 13 54 12 94 94 Calm 30 1016 10 16.09344 0 0
7:15 am 07:15 Sunny 55 13 54 12 94 94 Calm 30 1016 10 16.09344 0 0
7:35 am 07:35 Sunny 57 14 55 13 94 94 Calm 30 1016 10 16.09344 0 0
7:55 am 07:55 Sunny 59 15 57 14 94 94 ESE 3 6 30 1016 10 16.09344 0 0
8:15 am 08:15 Sunny 61 16 59 15 94 94 SE 8 13 30 1016 10 16.09344 0 0
8:35 am 08:35 Sunny 61 16 59 15 94 94 SE 10 17 30 1016 10 16.09344 0 0
8:55 am 08:55 Sunny 63 17 59 15 88 88 SE 8 13 29.97 1015 10 16.09344 0 0
9:15 am 09:15 Sunny 63 17 59 15 88 88 SE 7 11 29.97 1015 10 16.09344 0 0
9:35 am 09:35 Sunny 64 18 57 14 78 78 SSE 8 13 29.97 1015 10 16.09344 0 0
9:55 am 09:55 Sunny 66 19 57 14 73 73 S 10 17 29.97 1015 10 16.09344 0 0
10:15 am 10:15 Partly Cloudy 66 19 57 14 73 73 SSE 14 22 29.97 1015 10 16.09344 0 0
10:35 am 10:35 Mostly Cloudy 66 19 57 14 73 73 S 13 20 29.97 1015 10 16.09344 0 0
10:55 am 10:55 Cloudy 64 18 57 14 78 78 S 13 20 29.94 1014 10 16.09344 0 0
11:15 am 11:15 Cloudy 66 19 57 14 73 73 S 12 19 29.94 1014 10 16.09344 0 0
11:35 am 11:35 Mostly Cloudy 66 19 55 13 68 68 S 10 17 29.94 1014 10 16.09344 0 0
11:55 am 11:55 Partly Cloudy 66 19 55 13 68 68 S 13 20 29.94 1014 10 16.09344 0 0
12:15 pm 12:15 Partly Cloudy 68 20 55 13 64 64 S 15 24 29.91 1013 10 16.09344 0 0
12:35 pm 12:35 Sunny 68 20 57 14 69 69 S 15 24 29.91 1013 10 16.09344 0 0
12:55 pm 12:55 Sunny 68 20 57 14 69 69 S 14 22 29.91 1013 10 16.09344 0 0
1:15 pm 13:15 Sunny 68 20 57 14 69 69 S 13 20 29.91 1013 10 16.09344 0 0
1:35 pm 13:35 Sunny 70 21 59 15 69 69 SSE 15 24 29.91 1013 10 16.09344 0 0
1:55 pm 13:55 Sunny 70 21 59 15 69 69 SSE 12 19 29.91 1013 10 16.09344 0 0
2:15 pm 14:15 Sunny 72 22 59 15 65 65 SSE 13 20 29.88 1012 10 16.09344 0 0
2:35 pm 14:35 Sunny 72 22 59 15 65 65 S 13 20 29.88 1012 10 16.09344 0 0
2:55 pm 14:55 Sunny 73 23 59 15 61 61 S 15 24 29.85 1011 10 16.09344 0 0
3:15 pm 15:15 Mostly Cloudy 75 24 59 15 57 57 SSW 14 22 29.85 1011 10 16.09344 0 0
3:35 pm 15:35 Mostly Cloudy 75 24 59 15 57 57 S 15 24 29.83 1010 10 16.09344 0 0
3:55 pm 15:55 Partly Cloudy 75 24 57 14 54 54 SSW 12 19 29.83 1010 10 16.09344 0 0
4:15 pm 16:15 Partly Cloudy 77 25 57 14 51 51 SSW 12 19 29.8 1009 7 11.265408 0 0
4:35 pm 16:35 Partly Cloudy 77 25 59 15 54 54 S 13 20 29.8 1009 10 16.09344 0 0
4:55 pm 16:55 Mostly Cloudy 75 24 59 15 57 57 S 13 20 29.8 1009 10 16.09344 0 0
5:15 pm 17:15 Mostly Cloudy 75 24 57 14 54 54 S 14 22 29.8 1009 10 16.09344 0 0
5:35 pm 17:35 Cloudy 75 24 57 14 54 54 S 14 22 29.77 1008 10 16.09344 0 0
5:55 pm 17:55 Mostly Cloudy 75 24 59 15 57 57 S 12 19 29.77 1008 10 16.09344 0 0
6:15 pm 18:15 Mostly Cloudy 75 24 59 15 57 57 S 12 19 29.77 1008 10 16.09344 0 0
6:35 pm 18:35 Mostly Cloudy 75 24 59 15 57 57 S 16 26 29.77 1008 10 16.09344 0 0
6:55 pm 18:55 Mostly Cloudy 75 24 59 15 57 57 S 15 24 29.77 1008 10 16.09344 0 0
7:15 pm 19:15 Mostly Cloudy 73 23 59 15 61 61 S 10 17 29.77 1008 10 16.09344 0 0
7:35 pm 19:35 Mostly Cloudy 73 23 59 15 61 61 S 14 22 29.8 1009 10 16.09344 0 0
7:55 pm 19:55 Mostly Cloudy 73 23 59 15 61 61 S 9 15 29.8 1009 10 16.09344 0 0
8:15 pm 20:15 Partly Cloudy 72 22 59 15 65 65 S 12 19 29.83 1010 10 16.09344 0 0
8:35 pm 20:35 Partly Cloudy 72 22 61 16 69 69 S 8 13 29.85 1011 10 16.09344 0 0
8:55 pm 20:55 Partly Cloudy 70 21 61 16 73 73 S 5 7 29.85 1011 10 16.09344 0 0
9:15 pm 21:15 Clear 70 21 61 16 73 73 SW 6 9 29.85 1011 10 16.09344 0 0
9:35 pm 21:35 Mostly Cloudy 70 21 54 12 57 57 W 29 46 29.88 1012 10 16.09344 0 0
9:55 pm 21:55 Partly Cloudy 64 18 50 10 60 60 WNW 14 22 29.91 1013 10 16.09344 0 0
10:15 pm 22:15 Clear 63 17 52 11 68 68 W 9 15 29.91 1013 10 16.09344 0 0
10:35 pm 22:35 Clear 63 17 52 11 68 68 WNW 9 15 29.88 1012 10 16.09344 0 0
10:55 pm 22:55 Partly Cloudy 63 17 52 11 68 68 WNW 6 9 29.88 1012 10 16.09344 0 0
11:15 pm 23:15 Mostly Cloudy 63 17 52 11 68 68 Calm 29.85 1011 10 16.09344 0 0
11:35 pm 23:35 Cloudy 61 16 54 12 77 77 Calm 29.88 1012 10 16.09344 0 0
11:55 pm 23:55 Cloudy 61 16 54 12 77 77 SE 9 15 29.88 1012 10 16.09344 0 0

Powered by AerisWeather